Retour au catalogue

FENGYUN 1C DEB

ActifPO
NORAD 35169·DEBRIS·🇨🇳 China

Lancé May 10, 1999 depuis Taiyuan Satellite Launch Center

Loading…

Prochains Passages (prochaines 24 heures)

TLE

PériméSource: Space-Track

Époque: Aug 29, 2026, 12:05 UTC

1 35169U 99025DMZ 26241.50400413  .00003266  00000-0  59127-3 0  9995
2 35169  99.1076 155.6772 0149416  39.7338 321.4691 14.60135205695697

Suivez FENGYUN 1C DEB en temps réel avec AllMySat

Download on the App Store